TimeEDT,TemperatureF,Dew PointF,Humidity,Sea Level PressureIn,VisibilityMPH,Wind Direction,Wind SpeedMPH,Gust SpeedMPH,PrecipitationIn,Events,Conditions,WindDirDegrees,DateUTC
12:56 AM,62.1,52.0,70,30.09,10.0,North,9.2,-,N/A,,Overcast,10,2013-09-27 04:56:00
1:56 AM,62.1,51.1,67,30.09,10.0,NNE,6.9,-,N/A,,Overcast,20,2013-09-27 05:56:00
2:56 AM,62.1,50.0,65,30.09,10.0,NNE,6.9,-,N/A,,Overcast,30,2013-09-27 06:56:00
3:56 AM,63.0,52.0,67,30.09,10.0,North,9.2,-,N/A,,Overcast,10,2013-09-27 07:56:00
4:56 AM,62.1,52.0,70,30.11,10.0,NNE,8.1,-,N/A,,Overcast,20,2013-09-27 08:56:00
5:35 AM,62.6,51.8,68,30.11,10.0,NNE,11.5,-,N/A,,Overcast,20,2013-09-27 09:35:00
5:47 AM,62.6,51.8,68,30.11,10.0,NNE,9.2,-,N/A,,Overcast,20,2013-09-27 09:47:00
5:54 AM,62.6,51.8,68,30.11,10.0,NNE,6.9,-,N/A,,Overcast,30,2013-09-27 09:54:00
5:56 AM,62.1,52.0,70,30.12,10.0,NNE,12.7,18.4,N/A,,Overcast,20,2013-09-27 09:56:00
6:12 AM,62.6,51.8,68,30.12,10.0,NNE,8.1,-,N/A,,Overcast,20,2013-09-27 10:12:00
6:56 AM,62.1,53.1,72,30.13,10.0,NNE,9.2,-,N/A,,Overcast,20,2013-09-27 10:56:00
7:56 AM,63.0,53.1,70,30.15,10.0,NNE,11.5,-,N/A,,Overcast,30,2013-09-27 11:56:00
8:24 AM,62.6,51.8,68,30.15,10.0,NNE,11.5,18.4,N/A,,Overcast,30,2013-09-27 12:24:00
8:56 AM,63.0,53.1,70,30.17,10.0,NNE,10.4,-,N/A,,Overcast,20,2013-09-27 12:56:00
9:53 AM,66.2,53.6,64,30.17,10.0,NNE,11.5,-,N/A,,Overcast,20,2013-09-27 13:53:00
9:56 AM,66.0,54.0,65,30.17,10.0,NNE,13.8,-,N/A,,Overcast,20,2013-09-27 13:56:00
10:29 AM,64.4,53.6,68,30.17,10.0,North,12.7,21.9,N/A,,Overcast,10,2013-09-27 14:29:00
10:56 AM,64.9,53.1,65,30.17,10.0,NNE,13.8,-,N/A,,Mostly Cloudy,20,2013-09-27 14:56:00
11:12 AM,66.2,53.6,64,30.18,10.0,NNE,13.8,23.0,N/A,,Scattered Clouds,20,2013-09-27 15:12:00
11:26 AM,64.4,51.8,64,30.17,10.0,North,18.4,23.0,N/A,,Mostly Cloudy,10,2013-09-27 15:26:00
11:56 AM,64.0,53.1,67,30.18,10.0,NNE,13.8,24.2,N/A,,Overcast,20,2013-09-27 15:56:00
12:56 PM,63.0,51.1,65,30.19,10.0,NNE,16.1,23.0,N/A,,Overcast,20,2013-09-27 16:56:00
1:56 PM,61.0,51.1,70,30.18,10.0,NNE,15.0,-,N/A,,Overcast,20,2013-09-27 17:56:00
2:56 PM,62.1,52.0,70,30.17,10.0,North,9.2,23.0,N/A,,Overcast,10,2013-09-27 18:56:00
3:56 PM,62.1,52.0,70,30.17,10.0,North,16.1,25.3,N/A,,Overcast,10,2013-09-27 19:56:00
4:56 PM,63.0,51.1,65,30.17,10.0,North,11.5,19.6,N/A,,Scattered Clouds,10,2013-09-27 20:56:00
5:56 PM,60.1,52.0,75,30.19,10.0,North,11.5,-,N/A,,Clear,10,2013-09-27 21:56:00
6:56 PM,57.9,52.0,81,30.20,10.0,North,6.9,-,N/A,,Clear,10,2013-09-27 22:56:00
7:56 PM,57.0,51.1,81,30.21,10.0,NNE,4.6,-,N/A,,Clear,20,2013-09-27 23:56:00
8:56 PM,55.0,50.0,83,30.22,10.0,NE,3.5,-,N/A,,Clear,40,2013-09-28 00:56:00
9:56 PM,51.1,48.9,92,30.23,10.0,Calm,Calm,-,N/A,,Clear,0,2013-09-28 01:56:00
10:56 PM,48.9,46.9,93,30.25,10.0,Calm,Calm,-,N/A,,Clear,0,2013-09-28 02:56:00
11:56 PM,46.9,45.0,93,30.25,10.0,Calm,Calm,-,N/A,,Clear,0,2013-09-28 03:56:00